{"data":{"norad_id":65871,"epoch":"2026-05-25T03:48:24.778368Z","epoch_age_seconds":64430,"freshness":"FRESH","line1":"1 65871U 25223T   26145.15862012  .00013419  00000+0  46413-3 0  9992","line2":"2 65871  53.1615 298.9638 0001423  89.8521 270.2643 15.30215842 35911","mean_motion":15.30215842,"eccentricity":0.0001423,"inclination_deg":53.1615,"raan_deg":298.9638,"arg_perigee_deg":89.8521,"mean_anomaly_deg":270.2643,"bstar":0.00046413,"rev_number":3591,"period_min":94.104371453763,"perigee_km":474.19254320239,"apogee_km":476.1429937395,"semimajor_km":6853.3047684709,"source":"CELESTRAK","updated_at":"2026-05-25T13:38:20.975695Z"}}